User: anonymous   Login
Location: Albany
(35.0000°S, 118.0000°E)
Time: 08:15:55
(UTC-04:00)
Language:

Cosmos 1346 Rocket - Orbit

View from above orbital plane
View from above orbital plane
View from above satellite
View from above satellite

Ground track
Ground track

The orbit data is extracted from the following two-line orbital elements,

1 13121U 82027B   17172.90977722 +.00000931 +00000-0 +58066-4 0  9990
2 13121 081.1666 113.7696 0025715 151.0613 209.2044 15.08288856917401
Epoch (UTC): 21 June 2017 21:50:04
Eccentricity: 0.0025715
inclination: 81.1666°
perigee height: 523 km
apogee height: 559 km
right ascension of ascending node: 113.7696°
argument of perigee: 151.0613°
revolutions per day: 15.08288856
mean anomaly at epoch: 209.2044°
orbit number at epoch: 91740

The dashed part of the orbit path shows where the satellite is in the earth's shadow,  

DLR